Location: Newark
(39.0622°N, 106.5590°E)
Time: 02:35:59
(UTC+00:00)

Courier 1B - Pass Details

Date: 01 February 2020
Orbit: 962 x 1209 km, 28.3° (Epoch: 25 February)

Event Time Altitude Azimuth Distance (km) Brightness Sun altitude
Rises 14:58:30 0° 204° (SSW) 3,626 - -54.4°
Reaches altitude 10° 15:02:58 10° 176° (S) 2,699 - -55.2°
Maximum altitude 15:05:26 12° 153° (SSE) 2,550 - -55.6°
Drops below altitude 10° 15:07:56 10° 131° (SE) 2,739 - -56.0°
Sets 15:12:33 0° 103° (ESE) 3,740 - -56.8°
